Location: Gollag?dem
(16.8053°N, 80.8024°E)
Time: 17:49:28
(UTC+00:00)

Cosmos 1190 Rocket - Pass Details

Date: 13 August 2020
Orbit: 756 x 780 km, 74.1° (Epoch: 19 September)

Event Time Altitude Azimuth Distance (km) Brightness Sun altitude
Rises 13:42:49 0° 185° (S) 3,215 7.1 -10.0°
Reaches altitude 10° 13:45:11 10° 182° (S) 2,294 6.3 -10.5°
Maximum altitude 13:50:20 63° 102° (ESE) 856 4.0 -11.7°
Drops below altitude 10° 13:55:31 10° 22° (NNE) 2,314 6.5 -12.8°
Sets 13:57:55 0° 19° (NNE) 3,246 7.3 -13.4°
